• In Hungary
  • List of Countries
  • For 7 days
  • Water Temperature
  • Satellite Maps
  • Weather Map
  • News
  • Weather Widgets
  • user-avatar
    Login

    Hourly Weather Polanczyk

    Today, 23 October, Tuesday

    Time Temperature Precipitation Wind Pressure Humidity
    00:00 +5°C° 0.1 mm 2 mps 723 mmHg 79%
    01:00 +6°C° 0.1 mm 2 mps 723 mmHg 80%
    02:00 +6°C° 0.2 mm 2 mps 722 mmHg 82%
    03:00 +6°C° 0.2 mm 2 mps 722 mmHg 85%
    04:00 +6°C° 0.2 mm 2 mps 722 mmHg 88%
    05:00 +6°C° 0.1 mm 2 mps 721 mmHg 88%
    06:00 +5°C° 0.1 mm 2 mps 721 mmHg 89%
    07:00 +5°C° 0.1 mm 2 mps 721 mmHg 89%
    08:00 +5°C° 0 mm 3 mps 721 mmHg 83%
    09:00 +7°C° 0 mm 3 mps 720 mmHg 77%
    10:00 +8°C° 0 mm 3 mps 720 mmHg 71%
    11:00 +7°C° 0 mm 4 mps 719 mmHg 69%
    12:00 +7°C° 0 mm 4 mps 718 mmHg 68%
    13:00 +8°C° 0 mm 5 mps 717 mmHg 67%
    14:00 +7°C° 0.4 mm 5 mps 716 mmHg 71%
    15:00 +7°C° 0.4 mm 5 mps 715 mmHg 74%
    16:00 +7°C° 0.4 mm 5 mps 714 mmHg 78%
    17:00 +6°C° 0.2 mm 5 mps 714 mmHg 78%
    18:00 +6°C° 0.2 mm 5 mps 713 mmHg 79%
    19:00 +6°C° 0.2 mm 5 mps 712 mmHg 79%
    20:00 +6°C° 0.2 mm 5 mps 712 mmHg 79%
    21:00 +5°C° 0.2 mm 5 mps 711 mmHg 80%
    22:00 +4°C° 0.2 mm 6 mps 710 mmHg 81%
    23:00 +5°C° 0.4 mm 6 mps 709 mmHg 82%

    Tomorrow, 24 October, Wednesday

    Time Temperature Precipitation Wind Pressure Humidity
    00:00 +5°C° 0.4 mm 6 mps 708 mmHg 83%
    01:00 +5°C° 0.4 mm 6 mps 707 mmHg 85%
    02:00 +5°C° 0.9 mm 6 mps 706 mmHg 85%
    03:00 +5°C° 0.9 mm 7 mps 705 mmHg 85%
    04:00 +6°C° 0.9 mm 7 mps 704 mmHg 85%
    05:00 +5°C° 2.5 mm 7 mps 704 mmHg 84%
    06:00 +4°C° 2.5 mm 7 mps 704 mmHg 82%
    07:00 +4°C° 2.5 mm 7 mps 704 mmHg 80%
    08:00 +2°C° 0.4 mm 8 mps 704 mmHg 76%
    09:00 +2°C° 0.4 mm 8 mps 705 mmHg 73%
    10:00 +1°C° 0.4 mm 9 mps 706 mmHg 69%
    11:00 +1°C° 0.2 mm 9 mps 706 mmHg 64%
    12:00 +1°C° 0.2 mm 9 mps 707 mmHg 59%
    13:00 +2°C° 0.2 mm 9 mps 707 mmHg 54%
    14:00 +1°C° 0 mm 8 mps 708 mmHg 55%
    15:00 +1°C° 0 mm 8 mps 708 mmHg 56%
    16:00 +2°C° 0 mm 7 mps 708 mmHg 57%
    17:00 +1°C° 0 mm 8 mps 709 mmHg 58%
    18:00 0°C° 0 mm 8 mps 709 mmHg 59%
    19:00 0°C° 0 mm 9 mps 710 mmHg 60%
    20:00 0°C° 0 mm 9 mps 710 mmHg 61%
    21:00 0°C° 0 mm 8 mps 711 mmHg 62%
    22:00 0°C° 0 mm 8 mps 711 mmHg 62%
    23:00 -1°C° 0.1 mm 8 mps 712 mmHg 64%

    Day after tomorrow, 25 October, Thursday

    Time Temperature Precipitation Wind Pressure Humidity
    00:00 -1°C° 0.1 mm 8 mps 712 mmHg 66%
    01:00 -1°C° 0.1 mm 7 mps 713 mmHg 68%
    02:00 -1°C° 0 mm 7 mps 713 mmHg 70%
    03:00 -1°C° 0 mm 6 mps 713 mmHg 72%
    04:00 -2°C° 0 mm 6 mps 714 mmHg 75%
    05:00 -1°C° 0 mm 5 mps 714 mmHg 77%
    06:00 -1°C° 0 mm 4 mps 714 mmHg 79%
    07:00 -1°C° 0 mm 4 mps 714 mmHg 81%
    08:00 0°C° 0 mm 4 mps 714 mmHg 76%
    09:00 +1°C° 0 mm 5 mps 714 mmHg 72%
    10:00 +2°C° 0 mm 5 mps 713 mmHg 67%
    11:00 +2°C° 0.7 mm 5 mps 713 mmHg 71%
    12:00 +1°C° 0.7 mm 6 mps 712 mmHg 75%
    13:00 +1°C° 0.7 mm 6 mps 711 mmHg 79%
    14:00 +2°C° 0.6 mm 6 mps 710 mmHg 81%
    15:00 +2°C° 0.6 mm 6 mps 710 mmHg 84%
    16:00 +3°C° 0.6 mm 5 mps 710 mmHg 87%
    17:00 +3°C° 0.7 mm 5 mps 710 mmHg 87%
    18:00 +3°C° 0.7 mm 5 mps 710 mmHg 87%
    19:00 +5°C° 0.7 mm 5 mps 711 mmHg 87%
    20:00 +3°C° 0.1 mm 5 mps 711 mmHg 88%
    21:00 +2°C° 0.1 mm 5 mps 712 mmHg 88%
    22:00 +3°C° 0.1 mm 4 mps 712 mmHg 89%
    23:00 +3°C° 0 mm 4 mps 713 mmHg 90%

    26 October, Friday

    Time Temperature Precipitation Wind Pressure Humidity
    00:00 +1°C° 0 mm 4 mps 713 mmHg 91%
    01:00 +2°C° 0 mm 3 mps 713 mmHg 92%
    02:00 +2°C° 0 mm 3 mps 714 mmHg 92%
    03:00 +2°C° 0 mm 3 mps 714 mmHg 92%
    04:00 +2°C° 0 mm 3 mps 714 mmHg 93%
    05:00 +3°C° 0 mm 2 mps 715 mmHg 92%
    06:00 +3°C° 0 mm 2 mps 715 mmHg 91%
    07:00 +3°C° 0 mm 2 mps 715 mmHg 90%
    08:00 +3°C° 0 mm 3 mps 715 mmHg 85%
    09:00 +5°C° 0 mm 3 mps 716 mmHg 79%
    10:00 +6°C° 0 mm 4 mps 716 mmHg 74%
    11:00 +7°C° 0 mm 4 mps 716 mmHg 75%
    12:00 +7°C° 0 mm 4 mps 715 mmHg 76%
    13:00 +7°C° 0 mm 4 mps 715 mmHg 77%
    14:00 +6°C° 0 mm 4 mps 715 mmHg 79%
    15:00 +6°C° 0 mm 4 mps 715 mmHg 80%
    16:00 +6°C° 0 mm 4 mps 715 mmHg 82%
    17:00 +5°C° 0 mm 4 mps 715 mmHg 83%
    18:00 +5°C° 0 mm 4 mps 715 mmHg 83%
    19:00 +5°C° 0 mm 4 mps 715 mmHg 84%
    20:00 +6°C° 0 mm 4 mps 714 mmHg 83%
    21:00 +6°C° 0 mm 4 mps 714 mmHg 83%
    22:00 +6°C° 0 mm 5 mps 714 mmHg 82%
    23:00 +7°C° 0 mm 5 mps 714 mmHg 83%

    27 October, Saturday

    Time Temperature Precipitation Wind Pressure Humidity
    00:00 +7°C° 0 mm 5 mps 713 mmHg 84%
    01:00 +7°C° 0 mm 5 mps 713 mmHg 84%
    02:00 +7°C° 0 mm 5 mps 712 mmHg 85%
    03:00 +7°C° 0 mm 5 mps 712 mmHg 86%
    04:00 +7°C° 0 mm 5 mps 711 mmHg 86%
    05:00 +7°C° 0.1 mm 5 mps 711 mmHg 86%
    06:00 +7°C° 0.1 mm 5 mps 711 mmHg 87%
    07:00 +7°C° 0.1 mm 5 mps 711 mmHg 87%
    08:00 +8°C° 0.1 mm 5 mps 711 mmHg 86%
    09:00 +9°C° 0.1 mm 5 mps 710 mmHg 85%
    10:00 +10°C° 0.1 mm 6 mps 710 mmHg 83%
    11:00 +10°C° 0.8 mm 5 mps 710 mmHg 84%
    12:00 +10°C° 0.8 mm 5 mps 710 mmHg 86%
    13:00 +10°C° 0.8 mm 5 mps 709 mmHg 87%
    14:00 +10°C° 0.5 mm 5 mps 709 mmHg 85%
    15:00 +10°C° 0.5 mm 5 mps 709 mmHg 84%
    16:00 +12°C° 0.5 mm 5 mps 709 mmHg 82%
    17:00 +10°C° 0.9 mm 5 mps 709 mmHg 85%
    18:00 +11°C° 0.9 mm 4 mps 709 mmHg 87%
    19:00 +10°C° 0.9 mm 4 mps 709 mmHg 90%
    20:00 +10°C° 0.6 mm 3 mps 708 mmHg 91%
    21:00 +9°C° 0.6 mm 2 mps 708 mmHg 93%
    22:00 +9°C° 0.6 mm 2 mps 708 mmHg 94%
    23:00 +9°C° 1.3 mm 2 mps 708 mmHg 94%

    28 October, Sunday

    Time Temperature Precipitation Wind Pressure Humidity
    00:00 +9°C° 1.3 mm 2 mps 708 mmHg 94%
    01:00 +10°C° 1.3 mm 2 mps 707 mmHg 93%
    02:00 +10°C° 1.5 mm 3 mps 707 mmHg 92%
    03:00 +10°C° 1.5 mm 4 mps 706 mmHg 90%
    04:00 +10°C° 1.5 mm 4 mps 706 mmHg 88%
    05:00 +9°C° 1.2 mm 5 mps 706 mmHg 88%
    06:00 +9°C° 1.2 mm 5 mps 706 mmHg 88%
    07:00 +9°C° 1.2 mm 6 mps 706 mmHg 87%
    08:00 +10°C° 0.9 mm 6 mps 707 mmHg 86%
    09:00 +10°C° 0.9 mm 6 mps 707 mmHg 85%
    10:00 +10°C° 0.9 mm 6 mps 708 mmHg 84%
    11:00 +10°C° 0 mm 6 mps 708 mmHg 77%
    12:00 +10°C° 0 mm 6 mps 709 mmHg 70%
    13:00 +10°C° 0 mm 7 mps 710 mmHg 63%
    14:00 +9°C° 0 mm 6 mps 711 mmHg 68%
    15:00 +8°C° 0 mm 5 mps 712 mmHg 73%
    16:00 +6°C° 0 mm 4 mps 712 mmHg 77%
    17:00 +7°C° 0 mm 3 mps 713 mmHg 79%
    18:00 +5°C° 0 mm 3 mps 714 mmHg 81%
    19:00 +5°C° 0 mm 2 mps 715 mmHg 83%
    20:00 +6°C° 0 mm 1 mps 715 mmHg 85%
    21:00 +5°C° 0 mm 1 mps 716 mmHg 87%
    22:00 +4°C° 0 mm 0 mps 716 mmHg 89%
    23:00 +5°C° 0 mm 1 mps 716 mmHg 89%

    29 October, Monday

    Time Temperature Precipitation Wind Pressure Humidity
    00:00 +5°C° 0 mm 1 mps 716 mmHg 89%
    01:00 +4°C° 0 mm 1 mps 716 mmHg 89%
    02:00 +4°C° 0 mm 1 mps 717 mmHg 89%
    03:00 +4°C° 0 mm 1 mps 717 mmHg 89%
    04:00 +4°C° 0 mm 1 mps 717 mmHg 89%
    05:00 +4°C° 0 mm 1 mps 717 mmHg 88%
    06:00 +4°C° 0 mm 1 mps 717 mmHg 88%
    07:00 +4°C° 0 mm 1 mps 717 mmHg 87%
    08:00 +4°C° 0 mm 2 mps 717 mmHg 85%
    09:00 +5°C° 0 mm 2 mps 717 mmHg 83%
    10:00 +6°C° 0 mm 2 mps 717 mmHg 81%
    11:00 +5°C° 0.2 mm 3 mps 716 mmHg 82%
    12:00 +5°C° 0.2 mm 3 mps 716 mmHg 83%
    13:00 +7°C° 0.2 mm 3 mps 716 mmHg 84%
    14:00 +5°C° 0.3 mm 3 mps 715 mmHg 86%
    15:00 +5°C° 0.3 mm 4 mps 715 mmHg 88%
    16:00 +5°C° 0.3 mm 4 mps 714 mmHg 90%
    17:00 +5°C° 0.5 mm 4 mps 714 mmHg 90%
    18:00 +5°C° 0.5 mm 4 mps 713 mmHg 91%
    19:00 +5°C° 0.5 mm 4 mps 713 mmHg 91%
    20:00 +5°C° 0.5 mm 3 mps 713 mmHg 92%
    21:00 +5°C° 0.5 mm 3 mps 712 mmHg 93%
    22:00 +6°C° 0.5 mm 2 mps 712 mmHg 93%
    23:00 +6°C° 0.3 mm 2 mps 712 mmHg 94%
    Show more